[[{"header":{"parameterUnit":"m.s-1","parameterCategory":1,"la1":30.2992,"la2":30.254,"lo1":-89.0895,"lo2":-89.0443,"dy":0.0025,"dx":0.0025,"nx":19,"ny":19,"refTime":"2026-04-17T09:00:00:Z","depth":0,"parameterNumber":2,"parameterNumberName":"U-component_of_WINDS"},"data":[0,0,0,0.8287,0.8286,0.8225,0.8224,0.8159,0.8158,0,0,0,0,0,0,0,0,0,0,0,0.8314,0.8314,0.8287,0.8286,0.8225,0.8224,0.8159,0.8158,0,0,0,0,0,0,0,0,0,0,0,0.8314,0.8314,0.8314,0.8286,0.8225,0.8224,0.8159,0.82,0,0,0,0,0,0,0,0,0,0,0.8258,0.8291,0.8314,0.8314,0.8285,0.8225,0.8224,0.8202,0.8198,0.8193,0,0.8191,0,0.8174,0.8155,0.8155,0,0,0,0.8279,0.8295,0.8271,0.8314,0.8285,0.8225,0.825,0.82,0.8195,0.8187,0.819,0.8187,0.8173,0.8155,0.8154,0.8151,0.8151,0,0,0.8282,0.8307,0.8274,0.8268,0.828,0.8252,0.8248,0.8196,0.8201,0.819,0.8185,0.8172,0.8154,0.8154,0.815,0.8151,0,0,0,0.8297,0.831,0.8287,0.8271,0.8259,0.8251,0.8246,0.8203,0.8194,0.8185,0.8171,0.8154,0.8153,0.815,0.815,0.8191,0,0,0,0.8298,0.8319,0.8289,0.8303,0.8261,0.8231,0.8255,0.8197,0.8191,0.8171,0.8154,0.8153,0.8149,0.815,0.8189,0.8206,0,0,0,0.8315,0.832,0.8315,0.8305,0.828,0.8231,0.8218,0.8195,0.8183,0.8155,0.8153,0.8149,0.815,0.8188,0.8203,0.8213,0,0,0,0.834,0.8351,0.8316,0.8323,0.828,0.8257,0.8218,0.8199,0.818,0.8154,0.815,0.815,0.8187,0.8201,0.8211,0.8226,0.8235,0,0,0.8367,0.8355,0.8357,0.8324,0.8314,0.8264,0.8259,0.8217,0.8191,0.8165,0.8165,0.819,0.8203,0.8213,0.8273,0.828,0,0,0,0.8374,0.8376,0.8368,0.8352,0.8321,0.8296,0.8252,0.8236,0.8214,0.8183,0.8195,0.8202,0.8207,0.8213,0.8219,0.8221,0.8154,0.8154,0.8154,0.8449,0.8416,0.8418,0.8378,0.8363,0.8318,0.8303,0.8274,0.8243,0.8247,0.8239,0.828,0.8288,0.8293,0.8296,0.8244,0.8244,0.8245,0.8245,0.8487,0.8485,0.8446,0.8434,0.8399,0.8388,0.8345,0.8325,0.8309,0.8283,0.8286,0.8261,0.8301,0.8302,0.8247,0.8247,0.8247,0.8246,0.8246,0.8532,0.8526,0.8508,0.8482,0.8466,0.8424,0.8412,0.838,0.8349,0.8351,0.834,0.8339,0.8335,0.8348,0.8349,0.8349,0.8349,0.8349,0.8349,0.8587,0.8565,0.8559,0.8529,0.8515,0.8492,0.8449,0.8434,0.8409,0.8386,0.8386,0.8356,0.8312,0.8301,0.8351,0.8351,0.835,0.835,0.835,0.8637,0.8621,0.8612,0.8598,0.856,0.8547,0.8506,0.8479,0.8462,0.8457,0.8426,0.8399,0.8383,0.8378,0.8369,0.8433,0.8433,0.8433,0.8433,0.8676,0.8665,0.8649,0.863,0.8607,0.857,0.856,0.8527,0.8489,0.8476,0.8462,0.8448,0.8444,0.8431,0.8425,0.8416,0.849,0.849,0.8491,0.8705,0.8691,0.8689,0.8654,0.8622,0.8596,0.8586,0.8564,0.8518,0.8492,0.8466,0.8463,0.844,0.8434,0.8407,0.8399,0.8382,0,0]},{"header":{"parameterUnit":"m.s-1","parameterCategory":1,"la1":30.2992,"la2":30.254,"lo1":-89.0895,"lo2":-89.0443,"dy":0.0025,"dx":0.0025,"nx":19,"ny":19,"refTime":"2026-04-17T09:00:00:Z","depth":0,"parameterNumber":3,"parameterNumberName":"V-component_of_WINDS"},"data":[0,0,0,2.6697,2.6698,2.6751,2.6751,2.6812,2.6812,0,0,0,0,0,0,0,0,0,0,0,2.6677,2.6677,2.6696,2.6698,2.6751,2.6751,2.6812,2.6812,0,0,0,0,0,0,0,0,0,0,0,2.6677,2.6677,2.6678,2.6698,2.6751,2.6751,2.6812,2.6774,0,0,0,0,0,0,0,0,0,0,2.6723,2.6702,2.6677,2.6678,2.6698,2.6751,2.6751,2.6772,2.6776,2.6785,0,2.6792,0,2.6803,2.6816,2.6816,0,0,0,2.67,2.6698,2.6716,2.6678,2.6699,2.6751,2.6728,2.6775,2.6779,2.679,2.6793,2.6795,2.6804,2.6816,2.6817,2.6859,2.6859,0,0,2.6697,2.6684,2.6713,2.6719,2.6711,2.6726,2.6729,2.6777,2.6779,2.6793,2.6797,2.6805,2.6817,2.6817,2.6859,2.6859,0,0,0,2.6687,2.6682,2.6699,2.6716,2.6727,2.6727,2.6731,2.6777,2.6784,2.6798,2.6806,2.6817,2.6818,2.6859,2.6859,2.685,0,0,0,2.6686,2.6676,2.6698,2.669,2.6726,2.6753,2.673,2.678,2.6786,2.6806,2.6817,2.6818,2.6859,2.6859,2.685,2.6848,0,0,0,2.6675,2.6675,2.6681,2.6689,2.6712,2.6752,2.6762,2.6782,2.6791,2.6816,2.6818,2.6859,2.6859,2.6851,2.6848,2.6856,0,0,0,2.6659,2.6672,2.6681,2.6699,2.6711,2.6747,2.6762,2.6788,2.6809,2.6817,2.6859,2.6859,2.6851,2.6848,2.6856,2.6859,2.686,0,0,2.6668,2.6673,2.6685,2.6694,2.6725,2.674,2.6769,2.68,2.6813,2.6843,2.6844,2.685,2.6848,2.6856,2.6867,2.6867,0,0,0,2.6683,2.6691,2.6702,2.6721,2.6746,2.6766,2.6794,2.6806,2.6832,2.6826,2.6856,2.6855,2.686,2.6862,2.6862,2.6867,2.686,2.686,2.686,2.6676,2.6695,2.6715,2.674,2.6758,2.6787,2.6804,2.6824,2.6836,2.6843,2.6851,2.6856,2.6859,2.6859,2.6864,2.6855,2.6855,2.6855,2.6855,2.6691,2.6706,2.6723,2.6748,2.6767,2.6789,2.6818,2.6826,2.6848,2.6851,2.6856,2.6857,2.6858,2.6864,2.6855,2.6855,2.6855,2.6855,2.6855,2.6689,2.6699,2.6713,2.6744,2.6765,2.6789,2.6811,2.6827,2.6842,2.6848,2.6859,2.6859,2.6861,2.6852,2.6852,2.6852,2.6852,2.6852,2.6852,2.668,2.6697,2.6713,2.6741,2.6756,2.6778,2.6808,2.6822,2.6843,2.6853,2.6853,2.6865,2.6855,2.6853,2.6852,2.6852,2.6852,2.6852,2.6852,2.6688,2.6689,2.6714,2.6729,2.6764,2.6784,2.6805,2.6834,2.6849,2.6859,2.6869,2.686,2.6865,2.6865,2.6863,2.6866,2.6866,2.6866,2.6866,2.6686,2.6691,2.6721,2.6744,2.6768,2.679,2.6817,2.6841,2.6865,2.6875,2.6878,2.6876,2.6875,2.6881,2.6881,2.6879,2.6886,2.6886,2.6886,2.6692,2.67,2.672,2.6745,2.6773,2.6797,2.6823,2.6849,2.6876,2.6887,2.6884,2.6883,2.6881,2.6879,2.6889,2.6888,2.6885,0,0]}]]